Regional Weather Roundup
Issued by NWS

Home | Current Version | Previous Version | Text Only | Print | Product List | Glossary On
Versions: 1 2 3 4 5 6 7 8 9 10 11 12 13 14 15 16 17 18 19 20 21 22 23 24 25 26 27 28 29 30 31 32 33 34 35 36 37 38 39 40 41 42 43 44 45 46 47 48 49 50
000
ASUS43 KMKX 140320
RWRWI

WISCONSIN REGIONAL WEATHER ROUNDUP
NATIONAL WEATHER SERVICE MILWAUKEE/SULLIVAN WI
900 PM CST WED DEC 13 2017

NOTE: "FAIR" INDICATES FEW OR NO CLOUDS BELOW 12,000 FEET WITH NO
SIGNIFICANT WEATHER AND/OR OBSTRUCTIONS TO VISIBILITY.

WIZ001-002-006>008-014>016-023>028-140400-
NORTHWEST WISCONSIN

CITY           SKY/WX    TMP DP  RH WIND       PRES   REMARKS
SUPERIOR ARPT  CLOUDY    19  14  79 NW5       29.93R WCI  12
ASHLAND        CLOUDY    19  12  74 NE5       29.90S WCI  12
HAYWARD        CLOUDY    20  12  71 NE5       29.87R WCI  13
SIREN          CLOUDY    19  18  93 N3        29.91R
CUMBERLAND     CLOUDY    18  14  86 N7        29.88R WCI   8
RICE LAKE      CLOUDY    17  14  88 CALM      29.91R
CHETEK         CLOUDY    16  13  88 CALM      29.89R
LADYSMITH      FLURRIES  15  13  90 N5        29.87R WCI   8
EAU CLAIRE     CLEAR     14  10  84 N3        29.89R
MENOMONIE      CLEAR     17  12  82 N7        29.89S WCI   7
NEW RICHMOND   CLEAR     12   8  83 CALM      29.90S
OSCEOLA        CLOUDY    18  16  89 NW5       29.95R WCI  11
$$

WIZ003>005-009-010-017-018-140400-
NORTH CENTRAL WISCONSIN

CITY           SKY/WX    TMP DP  RH WIND       PRES   REMARKS
MANITOWISH WTR FLURRIES  16  14  93 N7        29.80R WCI   6
ARBOR VITAE    LGT SNOW  18  14  86 N5        29.79R WCI  11
WOODRUFF       LGT SNOW  18  14  86 N5        29.79R WCI  11
RHINELANDER    FLURRIES  15  13  91 NW5       29.79R WCI   8
EAGLE RIVER    LGT SNOW  16  11  82 N9        29.77R WCI   4
LAND O LAKES   FLURRIES  15  11  86 N7        29.79R WCI   5
PHILLIPS       CLOUDY    15  12  90 N5        29.82R WCI   7
TOMAHAWK       CLOUDY    11   9  90 NW5       29.80R WCI   3
MEDFORD        PTCLDY    10   7  89 NW8       29.82R WCI  -3
MERRILL        FLURRIES  12   9  90 NW5       29.80R WCI   4
$$

WIZ029-030-035-036-043>047-140400-
CENTRAL WISCONSIN

CITY           SKY/WX    TMP DP  RH WIND       PRES   REMARKS
WAUSAU         PTCLDY    14  11  87 NW6       29.79R WCI   5
MOSINEE        PTCLDY    12  10  92 NW7       29.81R WCI   2
MARSHFIELD     CLOUDY    14  10  84 N7        29.81R WCI   4
STEVENS POINT  PTCLDY    14  10  85 N5        29.82R WCI   6
WAUPACA        CLEAR     19  11  74 N7        29.81R WCI   9
WAUTOMA        CLEAR     18  12  77 N10       29.80R WCI   6
WISC RAPIDS    MOCLDY    18  13  80 N6        29.84R WCI  10
CAMP DOUGLAS   MOCLDY    19  14  79 NW9       29.83R WCI   9
$$

WIZ011>013-019>022-031-037>040-048>050-140400-
NORTHEAST WISCONSIN

CITY           SKY/WX    TMP DP  RH WIND       PRES   REMARKS
ANTIGO         CLOUDY    10   8  92 N6        29.77R WCI   0
SHAWANO        PTCLDY    14   9  79 N7        29.80R WCI   4
OCONTO         CLEAR     12   6  75 N6        29.81R WCI   3
STURGEON BAY   NOT AVBL
GREEN BAY      MOCLDY    16   7  67 N15G25    29.79R WCI   1
MANITOWOC      CLOUDY    19  14  81 N17       29.74R WCI   4
APPLETON       MOCLDY    16   9  73 N15       29.75R WCI   1
CLINTONVILLE   PTCLDY    16   9  73 N7        29.80  WCI   6
OSHKOSH        CLEAR     17  11  77 N21       29.77R WCI   0
$$

WIZ032>034-041-042-053>061-140400-
SOUTHWEST WISCONSIN

CITY           SKY/WX    TMP DP  RH WIND       PRES   REMARKS
LA CROSSE      CLOUDY    22  14  71 N14       29.86R WCI   9
SPARTA         CLEAR     18  14  84 N6        29.86R WCI  10
VIROQUA        MOCLDY    19  15  86 N12       29.81R WCI   6
BOSCOBEL       CLOUDY    24  13  62 N8G21     29.84R WCI  15
PRAIRIE DU CHI MOCLDY    24  13  64 NW10G18   29.84R WCI  13
PLATTEVILLE    CLOUDY    24  16  71 N15G21    29.79R WCI  11
$$

WIZ056-057-062-063-064-067-068-140400-
SOUTH CENTRAL WISCONSIN

CITY           SKY/WX    TMP DP  RH WIND       PRES   REMARKS
REEDSBURG      MOCLDY    19  15  84 N13       29.79R WCI   6
BARABOO/DELLS  CLOUDY    20  16  84 N12       29.78R WCI   8
LONE ROCK      CLOUDY    23  16  74 N12       29.82R WCI  12
MINERAL POINT  CLOUDY    25  18  74 N13       29.77R WCI  13
MADISON        CLOUDY    23  18  81 N13G23    29.76R WCI  11
MIDDLETON      CLOUDY    24  19  82 N13       29.76R WCI  13
WATERTOWN      CLOUDY    22  20  91 N16G24    29.73R WCI   8
MONROE         CLOUDY    25  18  74 N15G22    29.73R WCI  12
JANESVILLE     FLURRIES  27  19  74 NW20      29.71R WCI  13
$$

WIZ051-052-058>065-066-070>072-140400-
SOUTHEAST WISCONSIN

CITY           SKY/WX    TMP DP  RH WIND       PRES   REMARKS
MILWAUKEE      LGT SNOW  28  21  75 N24G39    29.67R BLWGSNOWWCI  14
WAUKESHA       LGT SNOW  23  19  86 N14       29.68R WCI  11
MILWAUKEE/TIMM LGT SNOW  25  19  80 N12G23    29.69R WCI  14
RACINE         FLURRIES  28  20  71 N21G36    29.69R WCI  15
BURLINGTON     PTCLDY    26  21  83 N15G25    29.68R WCI  13
KENOSHA        LGT SNOW  28  21  75 N12G22    29.65R WCI  18
FOND DU LAC    MIX PCPN  19  11  70 N15G28    29.77R WCI   5
SHEBOYGAN      MIX PCPN  20  16  84 N18G28    29.72R WCI   5
WEST BEND      LGT SNOW  23  21  93 N15G24    29.70R WCI  10
JUNEAU         CLOUDY    19  15  85 N16G25    29.75R WCI   4
$$

LSZ147-162-140400-
LAKE SUPERIOR

STATION/POSITION TIME  TEMP    WIND        PRES    WAVE
                       AIR SEA DIR/SP/G            HT/PER
                 (UTC) (F)     (DEG/KT/KT) (MB)    (FT/S)
DEVILS ISLAND    0300   20      20/ 13/ 18 1014.1S
SAXON HARBOR     0230   24                 1012.2R
$$

LMZ867-665-643>646-140400-
LAKE MICHIGAN

STATION/POSITION TIME  TEMP    WIND        PRES    WAVE
                       AIR SEA DIR/SP/G            HT/PER
                 (UTC) (F)     (DEG/KT/KT) (MB)    (FT/S)
NORTHPORT PIER   0249   20      10/ 15/ 24 1008.5R
KEWAUNEE LAKESHO 0300   16     350/ 13/ 20 1006.8
SHEBOYGAN LAKESH 0300   23     350/ 28/ 32 1007.1R
PORT WASHINGTON  0240   26      20/ 10/ 16 1006.4R
MILWAUKEE LAKESH 0300   28      20/ 26/ 30   N/A
KENOSHA   LAKESH 0300   29     360/ 27/ 31 1004.1
$$

TC  - TEMPERATURE IN CELSIUS
VSB - VISIBILITY IN STATUTE MILES
WCI - WIND CHILL INDEX
HX  - HEAT INDEX





USA.gov is the U.S. government's official web portal to all federal, state and local government web resources and services.